CTV164 WAMG-WAMM

Flight info

Callsign CTV164
Flight time 0h 29m
Altitude 17000
Route GTL W51 GONTA
Aircraft A320/M-SDE3FGHIRWY/LB1

Departure

Time 2026-05-08 12:21
Airport Jalaluddin Airport (WAMG)

Arrival

Time 2026-05-08 12:50
Airport Sam Ratulangi International Airport (WAMM)
Time Latitude Longitude Altitude Speed Heading
2026-05-08 11:58 0.64024 122.84471 121 ft 0 kts
2026-05-08 12:13 0.64014 122.84470 118 ft 4 kts
2026-05-08 12:13 0.63987 122.84469 120 ft 4 kts 356°
2026-05-08 12:14 0.63961 122.84473 121 ft 4 kts 333°
2026-05-08 12:14 0.63945 122.84488 118 ft 2 kts 278°
2026-05-08 12:14 0.63944 122.84493 118 ft 0 kts 277°
2026-05-08 12:17 0.63947 122.84471 123 ft 11 kts 277°
2026-05-08 12:17 0.63957 122.84391 119 ft 11 kts 277°
2026-05-08 12:18 0.63923 122.84345 120 ft 9 kts 193°
2026-05-08 12:18 0.63869 122.84339 118 ft 7 kts 186°
2026-05-08 12:18 0.63824 122.84331 121 ft 10 kts 199°
2026-05-08 12:18 0.63799 122.84262 123 ft 11 kts 279°
2026-05-08 12:19 0.63812 122.84188 124 ft 10 kts 278°
2026-05-08 12:19 0.63825 122.84091 124 ft 17 kts 277°
2026-05-08 12:19 0.63840 122.83971 124 ft 18 kts 277°
2026-05-08 12:19 0.63825 122.83850 118 ft 17 kts 264°
2026-05-08 12:20 0.63856 122.83840 119 ft 4 kts 70°
2026-05-08 12:20 0.63850 122.83889 120 ft 0 kts 97°
2026-05-08 12:20 0.63850 122.83892 120 ft 3 kts 97°
2026-05-08 12:20 0.63816 122.84150 123 ft 76 kts 97°
2026-05-08 12:21 0.63719 122.84910 115 ft 138 kts 98°
2026-05-08 12:21 0.63581 122.85974 461 ft 157 kts 98°
2026-05-08 12:21 0.63449 122.87023 1216 ft 153 kts 97°
2026-05-08 12:21 0.63347 122.88094 1848 ft 155 kts 92°
2026-05-08 12:22 0.63516 122.89226 2192 ft 177 kts 74°
2026-05-08 12:22 0.64074 122.90411 2476 ft 201 kts 59°
2026-05-08 12:22 0.65052 122.91518 2735 ft 225 kts 41°
2026-05-08 12:22 0.66309 122.92599 3032 ft 253 kts 42°
2026-05-08 12:23 0.67634 122.93757 3806 ft 252 kts 43°
2026-05-08 12:23 0.68900 122.94955 4789 ft 248 kts 54°
2026-05-08 12:23 0.69664 122.96455 5748 ft 240 kts 75°
2026-05-08 12:23 0.70125 122.98039 6716 ft 233 kts 75°
2026-05-08 12:24 0.70568 122.99580 7507 ft 236 kts 74°
2026-05-08 12:24 0.71041 123.01232 7808 ft 259 kts 75°
2026-05-08 12:24 0.71566 123.03064 8188 ft 280 kts 75°
2026-05-08 12:24 0.72112 123.04958 8896 ft 287 kts 75°
2026-05-08 12:25 0.72669 123.06885 9684 ft 291 kts 75°
2026-05-08 12:25 0.73237 123.08845 10229 ft 303 kts 75°
2026-05-08 12:25 0.73834 123.10913 10750 ft 313 kts 74°
2026-05-08 12:25 0.74442 123.13014 11443 ft 317 kts 74°
2026-05-08 12:26 0.75057 123.15140 12152 ft 320 kts 74°
2026-05-08 12:26 0.75680 123.17291 12838 ft 324 kts 74°
2026-05-08 12:26 0.76307 123.19466 13537 ft 327 kts 74°
2026-05-08 12:26 0.76941 123.21660 14159 ft 331 kts 74°
2026-05-08 12:27 0.77585 123.23879 14756 ft 334 kts 74°
2026-05-08 12:27 0.78231 123.26115 15361 ft 337 kts 74°
2026-05-08 12:27 0.78882 123.28378 15946 ft 340 kts 74°
2026-05-08 12:27 0.79539 123.30662 16533 ft 344 kts 74°
2026-05-08 12:28 0.80212 123.33001 16863 ft 347 kts 74°
2026-05-08 12:28 0.80869 123.35282 16941 ft 346 kts 74°
2026-05-08 12:28 0.81436 123.37651 16953 ft 346 kts 82°
2026-05-08 12:28 0.81721 123.40037 16954 ft 346 kts 83°
2026-05-08 12:29 0.82076 123.43136 16954 ft 346 kts 83°
2026-05-08 12:29 0.82628 123.47973 16956 ft 346 kts 83°
2026-05-08 12:29 0.83167 123.52686 16956 ft 346 kts 83°
2026-05-08 12:29 0.83721 123.57523 16956 ft 346 kts 83°
2026-05-08 12:30 0.84266 123.62297 16955 ft 346 kts 83°
2026-05-08 12:30 0.84814 123.67079 16957 ft 346 kts 83°
2026-05-08 12:30 0.85360 123.71847 16959 ft 346 kts 83°
2026-05-08 12:30 0.85905 123.76626 16959 ft 346 kts 83°
2026-05-08 12:31 0.86446 123.81400 16960 ft 346 kts 83°
2026-05-08 12:31 0.86996 123.86183 16959 ft 346 kts 83°
2026-05-08 12:31 0.87548 123.90965 16959 ft 346 kts 83°
2026-05-08 12:31 0.88097 123.95750 16960 ft 346 kts 83°
2026-05-08 12:32 0.88638 124.00528 16959 ft 346 kts 83°
2026-05-08 12:32 0.89184 124.05306 16946 ft 346 kts 83°
2026-05-08 12:32 0.89836 124.10068 16940 ft 346 kts 74°
2026-05-08 12:32 0.92177 124.14214 16951 ft 347 kts 46°
2026-05-08 12:33 0.96226 124.16791 16952 ft 349 kts 20°
2026-05-08 12:33 1.00748 124.18392 16951 ft 349 kts 21°
2026-05-08 12:33 1.05314 124.20042 16943 ft 349 kts 21°
2026-05-08 12:33 1.09943 124.21705 16948 ft 349 kts 21°
2026-05-08 12:34 1.14511 124.23345 16948 ft 349 kts 21°
2026-05-08 12:34 1.19080 124.24994 16949 ft 349 kts 21°
2026-05-08 12:34 1.21424 124.25836 16949 ft 349 kts 21°
2026-05-08 12:34 1.23708 124.26653 16948 ft 349 kts 21°
2026-05-08 12:35 1.26028 124.27482 16948 ft 349 kts 21°
2026-05-08 12:35 1.28309 124.28299 16943 ft 348 kts 21°
2026-05-08 12:35 1.30588 124.29117 16943 ft 348 kts 21°
2026-05-08 12:35 1.32869 124.29935 16943 ft 348 kts 21°
2026-05-08 12:36 1.35147 124.30751 16946 ft 348 kts 21°
2026-05-08 12:36 1.37429 124.31566 16946 ft 348 kts 21°
2026-05-08 12:36 1.39709 124.32381 16951 ft 348 kts 21°
2026-05-08 12:36 1.41994 124.33198 16951 ft 348 kts 21°
2026-05-08 12:37 1.44274 124.34017 16952 ft 348 kts 21°
2026-05-08 12:37 1.46484 124.34990 16954 ft 347 kts 31°
2026-05-08 12:37 1.48475 124.36343 16876 ft 347 kts 41°
2026-05-08 12:37 1.50266 124.37937 16634 ft 344 kts 43°
2026-05-08 12:38 1.52044 124.39536 16386 ft 343 kts 43°
2026-05-08 12:38 1.53818 124.41126 16141 ft 342 kts 43°
2026-05-08 12:38 1.55582 124.42703 15918 ft 340 kts 43°
2026-05-08 12:38 1.57346 124.44277 15689 ft 339 kts 43°
2026-05-08 12:39 1.59098 124.45844 15445 ft 337 kts 43°
2026-05-08 12:39 1.60836 124.47400 15208 ft 335 kts 43°
2026-05-08 12:39 1.62570 124.48952 14981 ft 334 kts 43°
2026-05-08 12:39 1.64286 124.50492 14650 ft 332 kts 43°
2026-05-08 12:40 1.66008 124.52039 14152 ft 334 kts 43°
2026-05-08 12:40 1.67742 124.53594 13659 ft 337 kts 43°
2026-05-08 12:40 1.69494 124.55160 13120 ft 338 kts 43°
2026-05-08 12:40 1.71244 124.56721 12620 ft 338 kts 43°
2026-05-08 12:41 1.72996 124.58289 12119 ft 338 kts 43°
2026-05-08 12:41 1.74745 124.59856 11620 ft 338 kts 43°
2026-05-08 12:41 1.76494 124.61424 11107 ft 337 kts 43°
2026-05-08 12:41 1.78236 124.62992 10610 ft 337 kts 44°
2026-05-08 12:42 1.79678 124.64808 10211 ft 332 kts 62°
2026-05-08 12:42 1.80494 124.66909 10087 ft 318 kts 78°
2026-05-08 12:42 1.80705 124.69063 9973 ft 306 kts 90°
2026-05-08 12:42 1.80711 124.71148 9752 ft 295 kts 90°
2026-05-08 12:43 1.80718 124.73184 9098 ft 292 kts 90°
2026-05-08 12:43 1.80726 124.75190 8617 ft 284 kts 90°
2026-05-08 12:43 1.80735 124.77121 8233 ft 272 kts 90°
2026-05-08 12:43 1.80743 124.78977 7882 ft 261 kts 90°
2026-05-08 12:44 1.80751 124.80756 7542 ft 251 kts 90°
2026-05-08 12:44 1.80754 124.81929 7323 ft 249 kts 90°
2026-05-08 12:44 1.80759 124.83662 6992 ft 249 kts 90°
2026-05-08 12:44 1.80765 124.85390 6659 ft 249 kts 90°
2026-05-08 12:45 1.80774 124.87118 6328 ft 248 kts 90°
2026-05-08 12:45 1.80727 124.88840 5977 ft 247 kts 99°
2026-05-08 12:45 1.80223 124.90471 5565 ft 249 kts 116°
2026-05-08 12:45 1.79184 124.91898 4962 ft 259 kts 137°
2026-05-08 12:46 1.77695 124.92880 4645 ft 256 kts 157°
2026-05-08 12:46 1.75985 124.93305 4325 ft 253 kts 176°
2026-05-08 12:46 1.74232 124.93279 3999 ft 251 kts 181°
2026-05-08 12:46 1.72495 124.93218 3668 ft 249 kts 181°
2026-05-08 12:47 1.70785 124.93160 3330 ft 240 kts 181°
2026-05-08 12:47 1.69157 124.93106 3014 ft 228 kts 181°
2026-05-08 12:47 1.67608 124.93055 2713 ft 218 kts 181°
2026-05-08 12:47 1.66146 124.93006 2441 ft 201 kts 181°
2026-05-08 12:48 1.64791 124.92961 2182 ft 184 kts 180°
2026-05-08 12:48 1.63582 124.92921 1932 ft 165 kts 180°
2026-05-08 12:48 1.62489 124.92884 1705 ft 151 kts 180°
2026-05-08 12:48 1.61464 124.92851 1499 ft 145 kts 180°
2026-05-08 12:49 1.60461 124.92818 1307 ft 143 kts 180°
2026-05-08 12:49 1.59468 124.92779 1056 ft 142 kts 181°
2026-05-08 12:49 1.58484 124.92732 857 ft 141 kts 181°
2026-05-08 12:49 1.57502 124.92710 640 ft 142 kts 180°
2026-05-08 12:50 1.56522 124.92687 431 ft 141 kts 181°
2026-05-08 12:50 1.55555 124.92656 337 ft 131 kts 181°
2026-05-08 12:50 1.54858 124.92632 338 ft 66 kts 181°
2026-05-08 12:50 1.54469 124.92619 336 ft 42 kts 182°
2026-05-08 12:51 1.54204 124.92612 337 ft 29 kts 181°
2026-05-08 12:51 1.54138 124.92482 338 ft 8 kts 272°
2026-05-08 12:51 1.54144 124.92445 338 ft 5 kts 285°
2026-05-08 12:52 1.54165 124.92422 336 ft 4 kts 326°
2026-05-08 12:52 1.54249 124.92419 338 ft 6 kts
2026-05-08 12:52 1.54273 124.92400 335 ft 4 kts 314°
2026-05-08 12:53 1.54290 124.92380 336 ft 4 kts 309°
2026-05-08 12:53 1.54312 124.92353 335 ft 0 kts 309°